User: anonymous   Login
Location: NJAA Observatory
(40.6819°N, 74.8979°W)
Time: 00:56:46
(UTC-04:00)
Language:

Meteor 2-9 Rocket - Orbit

View from above orbital plane
View from above orbital plane
View from above satellite
View from above satellite

Ground track
Ground track

The orbit data is extracted from the following two-line orbital elements,

1 13719U 82116B   16273.52603051  .00000125  00000-0  57231-4 0  9990
2 13719  81.2521 255.7072 0072106  17.2414 118.4090 14.14588871743515
Epoch (UTC): 29 September 2016 12:37:29
Eccentricity: 0.0072106
inclination: 81.2521°
perigee height: 791 km
apogee height: 896 km
right ascension of ascending node: 255.7072°
argument of perigee: 17.2414°
revolutions per day: 14.14588871
mean anomaly at epoch: 118.4090°
orbit number at epoch: 74351

The dashed part of the orbit path shows where the satellite is in the earth's shadow,  

DLR